Swanton, OH

7:04 PM EST on February 23, 2017 (GMT -0500)
Toledo Express

Weather History for KTOL - March, 2013

Change the Weather History Date:

Monday, March 25, 2013

  Actual Average Record
Temperature  
Mean Temperature 33 °F 41 °F  
Max Temperature 37 °F 51 °F 82 °F (1945)
Min Temperature 29 °F 31 °F -4 °F (1974)
Degree Days  
Heating Degree Days 32 24  
Month to date heating degree days 829 714  
Since 1 July heating degree days 5285 5290  
Cooling Degree Days 0 0  
Month to date cooling degree days 0 0  
Year to date cooling degree days 0 0  
Moisture  
Dew Point 27 °F    
Average Humidity 77    
Maximum Humidity 89    
Minimum Humidity 64    
Precipitation  
Precipitation 0.19 in 0.09 in 1.55 in (1964)
Month to date precipitation 0.73 1.94  
Year to date precipitation 7.17 6.06  
Snow  
Snow 1.30 in 0.10 in - ()
Month to date snowfall 1.4 5.0  
Since 1 July snowfall 22.1 35.5  
Snow Depth 1.00 in    
Sea Level Pressure  
Sea Level Pressure 29.62 in    
Wind  
Wind Speed 11 mph (NNE)    
Max Wind Speed 21 mph    
Max Gust Speed 26 mph    
Visibility 3 miles    
Events Fog , Snow    
T = Trace of Precipitation, MM = Missing Value Source: NWS Daily Summary

Daily Weather History Graph

Daily Weather History Graph

Search for Another Location

Airport or City:

Trip Planner

Search our weather history database for the weather conditions in past years. The results will help you decide how hot, cold, wet, or windy it might be!

Date:

Astronomy

Mar. 25, 2013 Rise Set
Actual Time 7:29 AM EDT 7:53 PM EDT
Civil Twilight 7:01 AM EDT 8:21 PM EDT
Nautical Twilight 6:29 AM EDT 8:53 PM EDT
Astronomical Twilight 5:55 AM EDT 9:27 PM EDT
Moon 6:23 PM EDT (3/25) 6:13 AM EDT (3/25)
Length of Visible Light 13h 19m
Length of Day
12h 23m
Waxing Gibbous, 96% of the Moon is Illuminated
Mar 25
Waxing Gibbous
Mar 27
Full
Apr 3
Last Quarter
Apr 10
New
Apr 18
First Quarter

Hourly Weather History & Observations

Time (EDT) Temp. Windchill Dew Point Humidity Pressure Visibility Wind Dir Wind Speed Gust Speed Precip Events Conditions
12:52 AM 32.0 °F 21.6 °F 23.0 °F 69% 29.58 in 5.0 mi NE 15.0 mph 24.2 mph 0.00 in Snow Light Snow
1:22 AM 30.2 °F 18.1 °F 24.8 °F 80% 29.56 in 2.0 mi NE 18.4 mph 23.0 mph 0.00 in Snow Light Snow
1:40 AM 30.2 °F 19.3 °F 24.8 °F 80% 29.54 in 2.5 mi NE 15.0 mph 21.9 mph 0.00 in Snow Light Snow
1:52 AM 30.9 °F 19.4 °F 24.1 °F 76% 29.56 in 4.0 mi NE 17.3 mph - 0.00 in Snow Light Snow
2:52 AM 30.9 °F 19.4 °F 24.1 °F 76% 29.55 in 9.0 mi NE 17.3 mph 25.3 mph 0.01 in Snow Light Snow
3:26 AM 30.2 °F 18.9 °F 24.8 °F 80% 29.53 in 2.5 mi NE 16.1 mph 26.5 mph 0.00 in Snow Light Snow
3:42 AM 30.2 °F 18.9 °F 24.8 °F 80% 29.52 in 3.0 mi NE 16.1 mph 23.0 mph 0.00 in Snow Light Snow
3:52 AM 30.9 °F 20.2 °F 24.1 °F 76% 29.54 in 4.0 mi NE 15.0 mph 24.2 mph 0.00 in Snow Light Snow
4:23 AM 30.2 °F 17.8 °F 24.8 °F 80% 29.51 in 1.8 mi NE 19.6 mph 24.2 mph 0.01 in Snow Light Snow
4:47 AM 30.2 °F 18.9 °F 24.8 °F 80% 29.50 in 3.0 mi NNE 16.1 mph 24.2 mph 0.01 in Snow Light Snow
4:52 AM 30.0 °F 18.7 °F 25.0 °F 82% 29.52 in 4.0 mi NNE 16.1 mph 24.2 mph 0.01 in Snow Light Snow
5:15 AM 30.2 °F 18.9 °F 24.8 °F 80% 29.50 in 1.8 mi NE 16.1 mph 21.9 mph 0.00 in Snow Light Snow
5:24 AM 28.4 °F 17.5 °F 26.6 °F 93% 29.50 in 1.2 mi NNE 13.8 mph - N/A Snow Light Snow
5:30 AM 28.4 °F 17.5 °F 26.6 °F 93% 29.50 in 2.0 mi NNE 13.8 mph - 0.01 in Snow Light Snow
5:52 AM 30.0 °F 19.1 °F 26.1 °F 85% 29.52 in 3.0 mi NNE 15.0 mph - 0.01 in Snow Light Snow
5:57 AM 30.2 °F 21.3 °F 26.6 °F 86% 29.50 in 1.8 mi NNE 10.4 mph - 0.00 in Snow Light Snow
6:26 AM 30.2 °F 19.3 °F 26.6 °F 86% 29.50 in 2.5 mi NNE 15.0 mph 21.9 mph 0.01 in Snow Light Snow
6:52 AM 30.0 °F 18.3 °F 26.1 °F 85% 29.52 in 1.5 mi NNE 17.3 mph 23.0 mph 0.02 in Snow Light Snow
7:01 AM 30.2 °F 19.3 °F 26.6 °F 86% 29.51 in 1.2 mi NNE 15.0 mph - 0.01 in Snow Light Snow
7:13 AM 30.2 °F 20.2 °F 26.6 °F 86% 29.51 in 1.5 mi NNE 12.7 mph - 0.01 in Snow Light Snow
7:23 AM 30.2 °F 19.3 °F 26.6 °F 86% 29.51 in 2.0 mi NNE 15.0 mph 23.0 mph 0.02 in Snow Light Snow
7:28 AM 30.2 °F 20.2 °F 26.6 °F 86% 29.51 in 1.2 mi NNE 12.7 mph 23.0 mph 0.02 in Snow Light Snow
7:45 AM 30.2 °F 20.2 °F 26.6 °F 86% 29.52 in 0.8 mi NNE 12.7 mph - 0.03 in Snow Light Snow
7:52 AM 30.0 °F 19.5 °F 27.0 °F 88% 29.54 in 0.5 mi NNE 13.8 mph - 0.04 in Fog , Snow Snow
8:00 AM 30.2 °F 20.2 °F 26.6 °F 86% 29.52 in 0.5 mi NNE 12.7 mph - 0.00 in Fog , Snow Snow
8:07 AM 30.2 °F 19.8 °F 26.6 °F 86% 29.52 in 0.5 mi NNE 13.8 mph 20.7 mph 0.01 in Fog , Snow Light Snow
8:38 AM 30.2 °F 20.8 °F 26.6 °F 86% 29.53 in 1.0 mi NNE 11.5 mph - 0.02 in Snow Light Snow
8:47 AM 30.2 °F 19.8 °F 26.6 °F 86% 29.53 in 1.0 mi NNE 13.8 mph 21.9 mph 0.02 in Snow Light Snow
8:52 AM 30.9 °F 21.2 °F 27.0 °F 85% 29.56 in 1.0 mi NNE 12.7 mph 21.9 mph 0.02 in Snow Light Snow
9:14 AM 30.2 °F 19.8 °F 28.4 °F 93% 29.55 in 1.2 mi NNE 13.8 mph - 0.00 in Snow Light Snow
9:23 AM 30.2 °F 20.8 °F 28.4 °F 93% 29.55 in 1.2 mi NNE 11.5 mph - 0.00 in Snow Light Snow
9:33 AM 30.2 °F 20.2 °F 28.4 °F 93% 29.55 in 1.5 mi NNE 12.7 mph - 0.01 in Snow Light Snow
9:45 AM 30.2 °F 20.8 °F 28.4 °F 93% 29.56 in 1.2 mi North 11.5 mph - 0.01 in Snow Light Snow
9:52 AM 30.9 °F 22.2 °F 27.0 °F 85% 29.58 in 1.2 mi NNE 10.4 mph - 0.01 in Snow Light Snow
10:00 AM 30.2 °F 20.2 °F 26.6 °F 86% 29.56 in 1.8 mi NNE 12.7 mph - 0.00 in Snow Light Snow
10:10 AM 30.2 °F 20.8 °F 26.6 °F 86% 29.56 in 2.0 mi NNE 11.5 mph - 0.00 in Snow Light Snow
10:22 AM 30.2 °F 19.8 °F 26.6 °F 86% 29.57 in 1.2 mi North 13.8 mph - 0.01 in Snow Light Snow
10:34 AM 30.2 °F 19.3 °F 26.6 °F 86% 29.57 in 0.8 mi North 15.0 mph - 0.01 in Snow Light Snow
10:41 AM 30.2 °F 19.3 °F 26.6 °F 86% 29.57 in 1.2 mi North 15.0 mph - 0.01 in Snow Light Snow
10:52 AM 30.9 °F 19.8 °F 27.0 °F 85% 29.60 in 1.2 mi NNE 16.1 mph - 0.01 in Snow Light Snow
11:14 AM 30.2 °F 19.3 °F 26.6 °F 86% 29.58 in 1.8 mi North 15.0 mph - 0.01 in Snow Light Snow
11:19 AM 30.2 °F 18.5 °F 26.6 °F 86% 29.58 in 2.0 mi NNE 17.3 mph - 0.01 in Snow Light Snow
11:36 AM 32.0 °F 22.5 °F 26.6 °F 80% 29.59 in 3.0 mi NNE 12.7 mph 21.9 mph 0.01 in Snow Light Snow
11:52 AM 32.0 °F 21.6 °F 26.1 °F 79% 29.62 in 4.0 mi North 15.0 mph 21.9 mph 0.01 in Snow Light Snow
12:52 PM 33.1 °F 24.4 °F 26.1 °F 75% 29.64 in 2.0 mi North 11.5 mph - 0.00 in Snow Light Snow
1:17 PM 32.0 °F 21.2 °F 26.6 °F 80% 29.63 in 1.5 mi North 16.1 mph 23.0 mph 0.00 in Snow Light Snow
1:37 PM 32.0 °F 21.6 °F 28.4 °F 87% 29.64 in 1.0 mi North 15.0 mph 24.2 mph 0.01 in Snow Light Snow
1:40 PM 32.0 °F 22.5 °F 28.4 °F 87% 29.64 in 0.8 mi North 12.7 mph - 0.01 in Snow Light Snow
1:52 PM 32.0 °F 23.6 °F 28.9 °F 88% 29.67 in 0.8 mi North 10.4 mph - 0.01 in Snow Light Snow
2:16 PM 33.8 °F 25.8 °F 28.4 °F 81% 29.65 in 1.0 mi North 10.4 mph - 0.01 in Snow Light Snow
2:25 PM 33.8 °F 26.4 °F 28.4 °F 81% 29.65 in 1.2 mi North 9.2 mph 17.3 mph 0.01 in Snow Light Snow
2:34 PM 33.8 °F 25.3 °F 28.4 °F 81% 29.65 in 1.5 mi North 11.5 mph - 0.01 in Snow Light Snow
2:47 PM 33.8 °F 25.3 °F 28.4 °F 81% 29.66 in 1.0 mi North 11.5 mph 19.6 mph 0.01 in Snow Light Snow
2:52 PM 34.0 °F 26.6 °F 28.9 °F 82% 29.68 in 1.0 mi North 9.2 mph - 0.01 in Snow Light Snow
3:10 PM 33.8 °F 24.8 °F 28.4 °F 81% 29.67 in 1.5 mi North 12.7 mph - 0.00 in Snow Light Snow
3:22 PM 33.8 °F 26.4 °F 28.4 °F 81% 29.67 in 1.0 mi North 9.2 mph - 0.00 in Snow Light Snow
3:27 PM 33.8 °F 25.8 °F 28.4 °F 81% 29.67 in 0.8 mi North 10.4 mph - 0.00 in Snow Light Snow
3:32 PM 33.8 °F 26.4 °F 28.4 °F 81% 29.67 in 0.8 mi North 9.2 mph 17.3 mph 0.00 in Snow Light Snow
3:37 PM 33.8 °F 27.0 °F 28.4 °F 81% 29.68 in 1.0 mi North 8.1 mph - 0.01 in Snow Light Snow
3:44 PM 33.8 °F 24.8 °F 30.2 °F 87% 29.68 in 1.2 mi North 12.7 mph - 0.01 in Snow Light Snow
3:52 PM 33.1 °F 25.5 °F 30.0 °F 89% 29.70 in 1.2 mi North 9.2 mph - 0.01 in Snow Light Snow
4:01 PM 33.8 °F 24.8 °F 30.2 °F 87% 29.69 in 1.2 mi North 12.7 mph 19.6 mph 0.00 in Snow Light Snow
4:22 PM 33.8 °F 25.8 °F 30.2 °F 87% 29.70 in 1.5 mi North 10.4 mph - 0.00 in Snow Light Snow
4:35 PM 33.8 °F 25.8 °F 30.2 °F 87% 29.70 in 2.5 mi NNW 10.4 mph - 0.01 in Snow Light Snow
4:52 PM 34.0 °F 25.5 °F 30.9 °F 89% 29.73 in 2.5 mi NNW 11.5 mph - 0.01 in Snow Light Snow
5:01 PM 33.8 °F 27.0 °F 30.2 °F 87% 29.71 in 3.0 mi North 8.1 mph - 0.00 in Snow Light Snow
5:16 PM 35.6 °F 28.6 °F 30.2 °F 81% 29.72 in 5.0 mi North 9.2 mph - 0.00 in Snow Light Snow
5:33 PM 35.6 °F 28.6 °F 30.2 °F 81% 29.72 in 10.0 mi North 9.2 mph - 0.00 in   Overcast
5:52 PM 35.1 °F 29.3 °F 30.9 °F 85% 29.75 in 6.0 mi North 6.9 mph - 0.00 in   Overcast
6:04 PM 35.6 °F 28.6 °F 30.2 °F 81% 29.74 in 2.5 mi NNW 9.2 mph - 0.01 in Snow Light Snow
6:15 PM 35.6 °F 31.7 °F 30.2 °F 81% 29.74 in 4.0 mi North 4.6 mph - 0.01 in Snow Light Snow
6:52 PM 36.0 °F 31.1 °F 28.9 °F 76% 29.78 in 10.0 mi North 5.8 mph - 0.01 in   Overcast
7:52 PM 37.0 °F 31.6 °F 26.1 °F 65% 29.82 in 10.0 mi NNE 6.9 mph - N/A   Overcast
8:52 PM 35.1 °F 27.9 °F 28.0 °F 76% 29.86 in 10.0 mi North 9.2 mph - N/A   Overcast
9:52 PM 35.1 °F 28.6 °F 28.0 °F 76% 29.89 in 10.0 mi North 8.1 mph - N/A   Overcast
10:52 PM 34.0 °F 28.0 °F 28.0 °F 79% 29.91 in 10.0 mi NNW 6.9 mph - N/A   Overcast
11:52 PM 34.0 °F 28.0 °F 27.0 °F 75% 29.92 in 10.0 mi NNW 6.9 mph - N/A   Overcast